Location: Home
(42.5358°N, 72.7383°W)
Time: 10:06:52
(UTC-05:00)

Courier 1B - Pass Details

Date: 02 December 2021
Orbit: 962 x 1209 km, 28.3° (Epoch: 21 January)

Event Time Altitude Azimuth Distance (km) Brightness Sun altitude
Rises 15:43:14 0° 210° (SSW) 4,035 12.1 4.6°
Reaches altitude 10° 15:47:47 10° 186° (S) 3,029 10.8 3.9°
Maximum altitude 15:51:14 14° 159° (SSE) 2,714 10.0 3.4°
Drops below altitude 10° 15:54:36 10° 130° (SE) 2,949 9.9 2.9°
Sets 15:58:54 0° 106° (ESE) 3,849 10.2 2.2°
